WJA589 CYOW-CYYZ

Flight info

Callsign WJA589
Flight time 0h 36m
Altitude 24000
Route TUKIR IMEBA9
Aircraft B738/M-SDE2E3FGHIRWXY/LB1

Departure

Time 2026-05-03 23:56
Airport Ottawa Macdonald-Cartier International Airport (CYOW)

Arrival

Time 2026-05-04 00:33
Airport Toronto Pearson International Airport (CYYZ)
Time Latitude Longitude Altitude Speed Heading
2026-05-03 23:56 45.26307 -76.10872 14708 ft 337 kts 266°
2026-05-03 23:56 45.26026 -76.14208 15243 ft 343 kts 266°
2026-05-03 23:56 45.25742 -76.17555 15781 ft 349 kts 266°
2026-05-03 23:56 45.25448 -76.21007 16333 ft 355 kts 266°
2026-05-03 23:57 45.25061 -76.24491 16885 ft 363 kts 257°
2026-05-03 23:57 45.24113 -76.27862 17479 ft 370 kts 250°
2026-05-03 23:57 45.23078 -76.31225 18067 ft 374 kts 250°
2026-05-03 23:57 45.22035 -76.34634 18567 ft 378 kts 251°
2026-05-03 23:58 45.20990 -76.38071 19087 ft 381 kts 251°
2026-05-03 23:58 45.19943 -76.41534 19603 ft 384 kts 251°
2026-05-03 23:58 45.18888 -76.45030 20156 ft 386 kts 251°
2026-05-03 23:58 45.17831 -76.48539 20695 ft 388 kts 251°
2026-05-03 23:59 45.16771 -76.52062 21226 ft 389 kts 251°
2026-05-03 23:59 45.15706 -76.55598 21795 ft 391 kts 251°
2026-05-03 23:59 45.14636 -76.59145 22372 ft 391 kts 251°
2026-05-03 23:59 45.13565 -76.62689 22956 ft 392 kts 251°
2026-05-04 00:00 45.12493 -76.66236 23526 ft 392 kts 251°
2026-05-04 00:00 45.11415 -76.69798 23790 ft 398 kts 251°
2026-05-04 00:00 45.10311 -76.73449 23813 ft 407 kts 251°
2026-05-04 00:00 45.09184 -76.77171 23828 ft 416 kts 251°
2026-05-04 00:01 45.08031 -76.80967 23832 ft 423 kts 251°
2026-05-04 00:01 45.06863 -76.84802 23822 ft 424 kts 251°
2026-05-04 00:01 45.05710 -76.88570 23809 ft 422 kts 250°
2026-05-04 00:01 45.04547 -76.92369 23811 ft 420 kts 250°
2026-05-04 00:02 45.03389 -76.96149 23817 ft 419 kts 250°
2026-05-04 00:02 45.02232 -76.99922 23808 ft 417 kts 250°
2026-05-04 00:02 45.01122 -77.03540 23816 ft 416 kts 250°
2026-05-04 00:02 44.99970 -77.07289 23817 ft 416 kts 250°
2026-05-04 00:03 44.98818 -77.11035 23820 ft 416 kts 250°
2026-05-04 00:03 44.97665 -77.14778 23828 ft 416 kts 250°
2026-05-04 00:03 44.96511 -77.18519 23825 ft 416 kts 250°
2026-05-04 00:03 44.95355 -77.22261 23825 ft 416 kts 250°
2026-05-04 00:04 44.94196 -77.26008 23824 ft 417 kts 250°
2026-05-04 00:04 44.93032 -77.29762 23827 ft 417 kts 250°
2026-05-04 00:04 44.92246 -77.32294 23827 ft 417 kts 250°
2026-05-04 00:04 44.91096 -77.35998 23828 ft 417 kts 250°
2026-05-04 00:05 44.89930 -77.39747 23834 ft 417 kts 250°
2026-05-04 00:05 44.88747 -77.43541 23830 ft 417 kts 250°
2026-05-04 00:05 44.87594 -77.47237 23814 ft 417 kts 250°
2026-05-04 00:05 44.86424 -77.50981 23820 ft 417 kts 250°
2026-05-04 00:06 44.85253 -77.54724 23834 ft 417 kts 250°
2026-05-04 00:06 44.84083 -77.58457 23838 ft 417 kts 250°
2026-05-04 00:06 44.82911 -77.62193 23830 ft 417 kts 250°
2026-05-04 00:06 44.81737 -77.65927 23831 ft 417 kts 250°
2026-05-04 00:07 44.80560 -77.69668 23833 ft 417 kts 250°
2026-05-04 00:07 44.79385 -77.73400 23839 ft 417 kts 250°
2026-05-04 00:07 44.78207 -77.77135 23837 ft 417 kts 250°
2026-05-04 00:07 44.77027 -77.80868 23825 ft 417 kts 250°
2026-05-04 00:08 44.75836 -77.84595 23827 ft 417 kts 248°
2026-05-04 00:08 44.74472 -77.88223 23837 ft 419 kts 244°
2026-05-04 00:08 44.72992 -77.91760 23832 ft 420 kts 243°
2026-05-04 00:08 44.71502 -77.95224 23837 ft 419 kts 243°
2026-05-04 00:09 44.69998 -77.98733 23834 ft 419 kts 243°
2026-05-04 00:09 44.68566 -78.02113 23841 ft 419 kts 243°
2026-05-04 00:09 44.67087 -78.05643 23834 ft 419 kts 244°
2026-05-04 00:09 44.65616 -78.09176 23827 ft 417 kts 244°
2026-05-04 00:10 44.64178 -78.12633 23615 ft 404 kts 244°
2026-05-04 00:10 44.62770 -78.16019 23150 ft 398 kts 244°
2026-05-04 00:10 44.61389 -78.19345 22646 ft 392 kts 244°
2026-05-04 00:10 44.60025 -78.22623 22152 ft 386 kts 244°
2026-05-04 00:11 44.58680 -78.25850 21663 ft 381 kts 244°
2026-05-04 00:11 44.57351 -78.29032 21162 ft 376 kts 244°
2026-05-04 00:11 44.56035 -78.32174 20686 ft 371 kts 244°
2026-05-04 00:11 44.54734 -78.35272 20226 ft 367 kts 244°
2026-05-04 00:12 44.53443 -78.38345 19767 ft 363 kts 244°
2026-05-04 00:12 44.52169 -78.41375 19324 ft 360 kts 244°
2026-05-04 00:12 44.50903 -78.44383 18872 ft 356 kts 244°
2026-05-04 00:12 44.49651 -78.47358 18436 ft 353 kts 244°
2026-05-04 00:13 44.48406 -78.50313 17989 ft 350 kts 244°
2026-05-04 00:13 44.47172 -78.53238 17488 ft 348 kts 244°
2026-05-04 00:13 44.45945 -78.56142 17007 ft 345 kts 244°
2026-05-04 00:13 44.44728 -78.59021 16528 ft 343 kts 244°
2026-05-04 00:14 44.43518 -78.61882 16057 ft 340 kts 244°
2026-05-04 00:14 44.42318 -78.64717 15535 ft 337 kts 244°
2026-05-04 00:14 44.41134 -78.67506 15024 ft 330 kts 244°
2026-05-04 00:14 44.39975 -78.70235 14515 ft 323 kts 244°
2026-05-04 00:15 44.38838 -78.72908 14024 ft 317 kts 244°
2026-05-04 00:15 44.37724 -78.75529 13525 ft 311 kts 244°
2026-05-04 00:15 44.36625 -78.78112 12979 ft 306 kts 244°
2026-05-04 00:15 44.35544 -78.80653 12376 ft 303 kts 244°
2026-05-04 00:16 44.34483 -78.83144 11789 ft 301 kts 244°
2026-05-04 00:16 44.33417 -78.85646 11202 ft 298 kts 244°
2026-05-04 00:16 44.32361 -78.88122 10628 ft 296 kts 244°
2026-05-04 00:16 44.31312 -78.90576 10062 ft 293 kts 244°
2026-05-04 00:17 44.30275 -78.93002 9472 ft 290 kts 244°
2026-05-04 00:17 44.29246 -78.95408 8859 ft 287 kts 244°
2026-05-04 00:17 44.28223 -78.97799 8290 ft 286 kts 244°
2026-05-04 00:17 44.27241 -79.00084 8090 ft 272 kts 244°
2026-05-04 00:18 44.26316 -79.02230 7994 ft 255 kts 244°
2026-05-04 00:18 44.25431 -79.04280 7980 ft 238 kts 245°
2026-05-04 00:18 44.24559 -79.06142 7985 ft 224 kts 237°
2026-05-04 00:18 44.23546 -79.07720 7942 ft 216 kts 234°
2026-05-04 00:19 44.22519 -79.09236 7728 ft 212 kts 234°
2026-05-04 00:19 44.21520 -79.10709 7510 ft 206 kts 234°
2026-05-04 00:19 44.20505 -79.12096 7198 ft 208 kts 224°
2026-05-04 00:19 44.19192 -79.13126 6708 ft 220 kts 216°
2026-05-04 00:20 44.17820 -79.14123 6252 ft 224 kts 217°
2026-05-04 00:20 44.16434 -79.15142 5754 ft 226 kts 217°
2026-05-04 00:20 44.15063 -79.16158 5261 ft 227 kts 216°
2026-05-04 00:20 44.13697 -79.17171 5026 ft 216 kts 217°
2026-05-04 00:21 44.12401 -79.18134 4786 ft 206 kts 217°
2026-05-04 00:21 44.11160 -79.19061 4501 ft 199 kts 217°
2026-05-04 00:21 44.09954 -79.19969 4174 ft 194 kts 217°
2026-05-04 00:21 44.08797 -79.20838 4026 ft 185 kts 217°
2026-05-04 00:22 44.07662 -79.21697 4003 ft 185 kts 217°
2026-05-04 00:22 44.06534 -79.22551 4000 ft 185 kts 218°
2026-05-04 00:22 44.05418 -79.23395 3973 ft 178 kts 217°
2026-05-04 00:22 44.04344 -79.24204 3996 ft 175 kts 218°
2026-05-04 00:23 44.03274 -79.25015 3998 ft 175 kts 218°
2026-05-04 00:23 44.02213 -79.25819 3993 ft 173 kts 218°
2026-05-04 00:23 44.01160 -79.26615 3991 ft 172 kts 218°
2026-05-04 00:23 44.00108 -79.27412 4001 ft 176 kts 218°
2026-05-04 00:24 43.98995 -79.28261 4003 ft 185 kts 217°
2026-05-04 00:24 43.97860 -79.29119 4000 ft 186 kts 217°
2026-05-04 00:24 43.96724 -79.29975 3991 ft 185 kts 217°
2026-05-04 00:24 43.95597 -79.30824 3989 ft 185 kts 218°
2026-05-04 00:25 43.94465 -79.31678 3999 ft 185 kts 218°
2026-05-04 00:25 43.93333 -79.32531 3993 ft 185 kts 217°
2026-05-04 00:25 43.92207 -79.33379 3982 ft 184 kts 217°
2026-05-04 00:25 43.91085 -79.34225 3897 ft 188 kts 217°
2026-05-04 00:26 43.89941 -79.35085 3759 ft 186 kts 218°
2026-05-04 00:26 43.88811 -79.35935 3630 ft 185 kts 218°
2026-05-04 00:26 43.87680 -79.36786 3515 ft 184 kts 217°
2026-05-04 00:26 43.86557 -79.37631 3347 ft 184 kts 217°
2026-05-04 00:27 43.85439 -79.38472 3171 ft 182 kts 216°
2026-05-04 00:27 43.84333 -79.39302 3047 ft 181 kts 217°
2026-05-04 00:27 43.83223 -79.40136 3013 ft 181 kts 217°
2026-05-04 00:27 43.82120 -79.40965 2999 ft 181 kts 216°
2026-05-04 00:28 43.81009 -79.41799 2993 ft 181 kts 216°
2026-05-04 00:28 43.79901 -79.42630 3002 ft 181 kts 216°
2026-05-04 00:28 43.78799 -79.43460 2997 ft 178 kts 218°
2026-05-04 00:28 43.77898 -79.44575 3008 ft 174 kts 234°
2026-05-04 00:29 43.77093 -79.45797 3012 ft 168 kts 231°
2026-05-04 00:29 43.76296 -79.46939 2991 ft 160 kts 231°
2026-05-04 00:29 43.75552 -79.48026 2877 ft 153 kts 231°
2026-05-04 00:29 43.74827 -79.49089 2708 ft 152 kts 230°
2026-05-04 00:30 43.74113 -79.50131 2488 ft 149 kts 230°
2026-05-04 00:30 43.73404 -79.51163 2301 ft 147 kts 230°
2026-05-04 00:30 43.72719 -79.52160 2101 ft 138 kts 230°
2026-05-04 00:30 43.72076 -79.53096 1910 ft 133 kts 228°
2026-05-04 00:31 43.71439 -79.54024 1750 ft 134 kts 229°
2026-05-04 00:31 43.70799 -79.54958 1560 ft 133 kts 227°
2026-05-04 00:31 43.70151 -79.55899 1393 ft 137 kts 227°
2026-05-04 00:31 43.69471 -79.56893 1150 ft 146 kts 226°
2026-05-04 00:32 43.68760 -79.57934 949 ft 149 kts 227°
2026-05-04 00:32 43.68057 -79.58961 735 ft 154 kts 228°
2026-05-04 00:32 43.67305 -79.60052 580 ft 155 kts 226°
2026-05-04 00:32 43.66643 -79.61006 573 ft 91 kts 226°
2026-05-04 00:33 43.66427 -79.61365 572 ft 28 kts 247°
2026-05-04 00:33 43.66373 -79.61652 570 ft 11 kts 269°
2026-05-04 00:33 43.66384 -79.61698 568 ft 1 kts 305°
2026-05-04 00:34 43.66385 -79.61699 568 ft 0 kts 305°
2026-05-04 00:35 43.66417 -79.61747 566 ft 16 kts 317°
2026-05-04 00:35 43.66505 -79.61858 564 ft 18 kts 317°
2026-05-04 00:36 43.66614 -79.61930 561 ft 18 kts 24°
2026-05-04 00:36 43.66701 -79.61805 559 ft 18 kts 47°
2026-05-04 00:36 43.66785 -79.61683 561 ft 17 kts 46°
2026-05-04 00:36 43.66882 -79.61545 563 ft 24 kts 46°
2026-05-04 00:37 43.66991 -79.61380 563 ft 23 kts 46°
2026-05-04 00:37 43.67079 -79.61260 562 ft 17 kts 44°